Location: Camp Crooked Creek
(37.9149°N, 85.6607°W)
Time: 12:31:44
(UTC-05:00)

Lacrosse 4 - Visible Passes

Search period start: 22 February 2017 00:00
Search period end: 04 March 2017 00:00
Orbit: 673 x 680 km, 68.0° (Epoch: 25 February)

Date Brightness Start Highest point End Pass type
(mag) Time Alt. Az. Time Alt. Az. Time Alt. Az.
22 Feb 2.3 06:49:51 10° NNW 06:54:36 62° ENE 06:59:19 10° SE visible
23 Feb 4.1 05:44:58 10° N 05:48:39 22° NE 05:52:19 10° ESE visible
24 Feb 2.3 06:19:15 10° NNW 06:23:58 60° ENE 06:28:41 10° SE visible
24 Feb 3.7 20:37:09 10° SSW 20:38:22 18° S 20:38:22 18° S visible
25 Feb 4.2 05:14:25 10° N 05:18:01 21° NE 05:21:35 10° ESE visible
25 Feb 3.1 19:33:18 10° SSE 19:36:16 18° ESE 19:36:16 18° ESE visible
25 Feb 3.5 21:12:19 10° SW 21:14:41 27° WSW 21:14:41 27° WSW visible
26 Feb 2.4 05:48:39 10° NNW 05:53:21 57° ENE 05:58:02 10° SE visible
26 Feb 1.7 20:06:34 10° S 20:11:13 57° ESE 20:12:38 40° ENE visible
26 Feb 4.5 21:49:13 10° W 21:51:04 15° WNW 21:51:04 15° WNW visible
27 Feb 4.2 04:43:51 10° N 04:47:22 20° NE 04:50:52 10° E visible
27 Feb 2.0 06:23:46 10° NW 06:28:19 46° WSW 06:32:52 10° S visible
27 Feb 3.2 19:02:49 10° SE 19:05:55 17° ESE 19:09:02 10° ENE visible
27 Feb 2.7 20:41:40 10° SW 20:46:14 46° WNW 20:48:57 23° N visible
28 Feb 2.4 05:18:07 10° NNW 05:22:44 54° ENE 05:27:23 10° SE visible
28 Feb 1.8 19:35:58 10° S 19:40:36 54° ESE 19:45:16 10° NE visible
28 Feb 4.3 21:18:28 10° W 21:21:40 18° NW 21:24:52 10° N visible
01 Mar 4.2 04:15:21 17° NNE 04:16:43 19° NE 04:20:08 10° E visible
01 Mar 1.9 05:53:44 13° NW 05:57:43 48° WSW 06:02:16 10° S visible
01 Mar 2.7 20:11:00 10° SW 20:15:37 48° WNW 20:20:15 10° NNE visible
02 Mar 2.4 04:51:17 46° NNE 04:52:06 52° ENE 04:56:44 10° SE visible
02 Mar 3.3 06:29:41 10° WNW 06:32:21 15° WSW 06:35:08 10° SW visible
02 Mar 1.9 19:05:22 10° S 19:09:59 51° ESE 19:14:37 10° NE visible
02 Mar 4.4 20:47:43 10° W 20:51:01 18° NW 20:54:19 10° N visible
03 Mar 4.7 03:49:04 11° E 03:49:04 11° E 03:49:24 10° E visible
03 Mar 1.9 05:27:30 49° SW 05:27:30 49° SW 05:31:41 10° S visible
03 Mar 2.6 19:40:21 10° SW 19:44:59 51° WNW 19:49:39 10° NNE visible
